Weather History for Brier Island, NS

Change the Weather History Date:

Wednesday, February 20, 2013

  Actual Average Record
Temperature  
Mean Temperature 40 °F -  
Max Temperature 43 °F - - ()
Min Temperature 35 °F - - ()
Degree Days  
Heating Degree Days 26    
Moisture  
Dew Point 34 °F    
Average Humidity 82    
Maximum Humidity 98    
Minimum Humidity 58    
Precipitation  
Precipitation 0.12 in - - ()
Sea Level Pressure  
Sea Level Pressure 29.57 in    
Wind  
Wind Speed 19 mph ()    
Max Wind Speed 40 mph    
Max Gust Speed 53 mph    
T = Trace of Precipitation, MM = Missing Value Source: Averaged Metar Reports

Daily Weather History Graph

Daily Weather History Graph

Search for Another Location

Airport:

Trip Planner

Search our weather history database for the weather conditions in past years. The results will help you decide how hot, cold, wet, or windy it might be!

Date:

Astronomy

Feb. 20, 2013 Rise Set
Actual Time 7:17 AM AST 6:01 PM AST
Civil Twilight 6:47 AM AST 6:31 PM AST
Nautical Twilight 6:13 AM AST 7:05 PM AST
Astronomical Twilight 5:40 AM AST 7:38 PM AST
Moon 1:13 PM AST (2/20) 3:41 AM AST (2/20)
Length of Visible Light 11h 43m
Length of Day
10h 44m
Waxing Gibbous, 75% of the Moon is Illuminated
Feb 20
Waxing Gibbous
Feb 25
Full
Mar 4
Last Quarter
Mar 11
New
Mar 19
First Quarter

Hourly Weather History & Observations

Time (AST) Temp. Windchill Dew Point Humidity Pressure Visibility Wind Dir Wind Speed Gust Speed Precip Events Conditions
12:00 AM 36.7 °F 27.6 °F 31.6 °F 82% 29.91 in - SE 15.0 mph - N/A   Unknown
1:00 AM 36.7 °F 26.0 °F 31.3 °F 81% 29.86 in - ESE 20.7 mph - N/A   Unknown
2:00 AM 38 °F - 33 °F 76% 29.84 in - ESE 23.0 mph - -  
2:00 AM 38.1 °F 27.3 °F 33.1 °F 82% 29.84 in - ESE 23.0 mph - N/A   Unknown
3:00 AM 38.5 °F 28.1 °F 34.5 °F 86% 29.81 in - ESE 21.9 mph - N/A   Unknown
4:00 AM 38.3 °F 27.1 °F 36.0 °F 91% 29.74 in - ESE 25.3 mph - N/A   Unknown
5:00 AM 39.4 °F 28.3 °F 37.4 °F 93% 29.67 in - East 26.5 mph 33.4 mph N/A   Unknown
6:00 AM 39.6 °F 28.1 °F 37.8 °F 93% 29.60 in - East 28.8 mph 35.7 mph N/A   Unknown
7:00 AM 39.9 °F 28.2 °F 38.5 °F 95% 29.51 in - East 31.1 mph 39.1 mph 0.02 in   Unknown
8:00 AM 40 °F - 39 °F 96% 29.42 in - East 40.3 mph - -  
8:00 AM 40.1 °F 27.1 °F 39.2 °F 97% 29.42 in - East 40.3 mph 52.9 mph 0.07 in   Unknown
9:00 AM 41.7 °F 30.6 °F 40.6 °F 96% 29.47 in - ESE 31.1 mph 39.1 mph 0.08 in   Unknown
10:00 AM 42.8 °F 37.5 °F 42.3 °F 98% 29.50 in - South 9.2 mph - 0.02 in   Unknown
11:00 AM 42.4 °F 35.7 °F 38.5 °F 86% 29.50 in - SW 12.7 mph 21.9 mph N/A   Unknown
12:00 PM 43.0 °F 36.4 °F 37.6 °F 81% 29.49 in - SW 12.7 mph 18.4 mph N/A   Unknown
1:00 PM 43.5 °F 37.5 °F 37.2 °F 78% 29.48 in - SSW 11.5 mph 18.4 mph N/A   Unknown
2:00 PM 40 °F - 34 °F 73% 29.47 in - WSW 13.8 mph - -  
2:00 PM 39.6 °F 31.7 °F 34.3 °F 82% 29.47 in - WSW 13.8 mph - N/A   Unknown
3:00 PM 39.7 °F 31.5 °F 31.6 °F 73% 29.47 in - WSW 15.0 mph 23.0 mph N/A   Unknown
4:00 PM 38.5 °F 30.3 °F 31.3 °F 75% 29.47 in - WSW 13.8 mph 19.6 mph N/A   Unknown
5:00 PM 37.9 °F 29.2 °F 32.0 °F 79% 29.49 in - WSW 15.0 mph 24.2 mph N/A   Unknown
6:00 PM 37.6 °F 28.4 °F 30.2 °F 75% 29.51 in - SW 16.1 mph 23.0 mph N/A   Unknown
7:00 PM 37.8 °F 28.6 °F 29.5 °F 72% 29.52 in - WSW 16.1 mph - N/A   Unknown
8:00 PM 38 °F - 28 °F 58% 29.51 in - WSW 16.1 mph - -  
8:00 PM 37.6 °F 28.4 °F 28.4 °F 69% 29.51 in - WSW 16.1 mph 21.9 mph N/A   Unknown
10:00 PM 36.5 °F 25.7 °F 27.9 °F 71% 29.50 in - WNW 20.7 mph - N/A   Unknown
11:00 PM 35.8 °F 25.1 °F 29.3 °F 77% 29.51 in - WNW 19.6 mph - N/A   Unknown